Location: Casilda
(33.0440°S, 61.1680°W)
Time: 15:47:34

ISS - Pass Details

Date: 13 March 2018
Orbit: 403 x 406 km, 51.6° (Epoch: 21 March)

Event Time Altitude Azimuth Distance (km) Brightness Sun altitude
Rises 19:59:10 0° 221° (SW) 2,353 0.9 -8.0°
Reaches altitude 10° 20:01:19 10° 214° (SW) 1,486 -0.3 -8.4°
Maximum altitude 20:04:33 45° 139° (SE) 568 -3.3 -9.1°
Enters shadow 20:07:16 13° 67° (ENE) 1,287 -1.9 -9.6°
